Tracking 35275 objects as of 9-Sep-2026
HD Live streaming from Space Station
objects crossing your sky now

SL-14 R/B

Track SL-14 R/B now!
10-day predictions


NORAD ID: 15475
Int'l Code: 1985-003G
Launch date: January 15, 1985
Source: Commonwealth of Independent States (former USSR) (CIS)
Launch site: PLESETSK MISSILE AND SPACE COMPLEX (PKMTR)

Note: This is a ROCKET BODY
Your satellite tracking list
Your tracking list is empty




NASA's NSSDC Master Catalog

Two Line Element Set (TLE):
1 15475U 85003G   26252.29223303 -.00000002  00000-0 -77451-4 0  9991
2 15475  82.6144 188.4095 0037808  14.5319 152.4799 12.55180230908060
Source of the keplerian elements: AFSPC